KD8LPB Weather Reports


time (UTC)temp
C
wind
direction
speed
KPH
gust
KPH
rain 1hr
cm
rain 24hr
cm
rain mn
cm
humidity
%
barometer
mb
20260509150035 11 329 0.0 3.2 0.00 0.00 0.00 69 996.2
20260509144546 10 212 1.6 3.2 0.00 0.00 0.00 68 996.1
20260509143038 8 227 1.6 6.4 0.00 0.00 0.00 74 996.2
20260509141544 7 193 0.0 4.8 0.00 0.00 0.00 78 996.1
20260509140046 6 217 0.0 3.2 0.00 0.00 0.00 83 996.4
20260509134550 4 45 3.2 11.3 0.00 0.00 0.00 88 996.0
20260509133038 3 58 6.4 11.3 0.00 0.00 0.00 90 995.7
20260509131556 5 0 0.0 0.0 0.00 0.00 0.00 85 996.1
20260509130050 5 246 0.0 3.2 0.00 0.00 0.00 82 996.4
20260509124543 5 0 0.0 1.6 0.00 0.00 0.00 82 996.8
20260509123045 5 0 0.0 1.6 0.00 0.00 0.00 81 996.9
20260509121543 5 230 0.0 3.2 0.00 0.00 0.00 82 996.6
20260509120039 4 205 0.0 4.8 0.00 0.00 0.00 81 996.4
20260509114537 5 264 0.0 6.4 0.00 0.00 0.00 80 996.3
20260509113036 5 203 1.6 6.4 0.00 0.00 0.00 79 996.2
20260509111535 5 202 0.0 8.0 0.00 0.00 0.00 79 996.1
20260509110037 4 140 0.0 3.2 0.00 0.00 0.00 81 996.2
20260509104549 3 144 0.0 1.6 0.00 0.00 0.00 81 996.6
20260509103039 3 0 0.0 0.0 0.00 0.00 0.00 82 996.7
20260509101538 3 0 0.0 1.6 0.00 0.00 0.00 84 996.9
20260509100039 3 0 0.0 1.6 0.00 0.00 0.00 83 997.2
20260509094536 3 0 1.6 4.8 0.00 0.00 0.00 84 997.4
20260509093035 3 56 1.6 3.2 0.00 0.00 0.00 85 997.7
20260509091538 3 55 0.0 3.2 0.00 0.00 0.00 84 997.9
20260509090045 3 50 4.8 8.0 0.00 0.00 0.00 84 998.2
20260509084538 4 0 1.6 6.4 0.00 0.00 0.00 81 998.4
20260509083043 4 56 0.0 4.8 0.00 0.00 0.00 79 998.3
20260509081542 4 135 0.0 4.8 0.00 0.00 0.00 79 998.5
20260509080037 3 0 0.0 3.2 0.00 0.00 0.00 80 998.6
20260509074536 3 0 0.0 6.4 0.00 0.00 0.00 81 999.1
20260509073037 3 101 0.0 3.2 0.00 0.00 0.00 81 999.2
20260509071536 3 0 0.0 1.6 0.00 0.00 0.00 81 999.3
20260509070035 3 160 0.0 3.2 0.00 0.00 0.00 81 999.9
20260509064540 3 97 0.0 6.4 0.00 0.00 0.00 80 1000.4
20260509063036 4 252 0.0 3.2 0.00 0.00 0.00 77 1000.4
20260509061620 4 224 0.0 6.4 0.00 0.00 0.00 76 1000.6
20260509060035 4 0 0.0 1.6 0.00 0.00 0.00 76 1000.9
20260509054542 4 257 1.6 6.4 0.00 0.00 0.00 77 1000.8
20260509053120 5 211 1.6 6.4 0.00 0.00 0.00 73 1001.3
20260509051546 5 217 0.0 4.8 0.00 0.00 0.00 72 1001.2
20260509050045 5 177 1.6 6.4 0.00 0.00 0.00 71 1001.4
20260509044536 4 240 1.6 8.0 0.00 0.00 0.00 69 1001.5
20260509043038 5 228 1.6 6.4 0.00 0.00 0.00 64 1001.8
20260509041540 5 257 0.0 4.8 0.00 0.00 0.00 62 1002.0
20260509040047 4 231 0.0 3.2 0.00 0.00 0.00 63 1002.3
20260509034540 3 198 0.0 1.6 0.00 0.00 0.00 65 1002.5
20260509033036 3 229 0.0 1.6 0.00 0.00 0.00 66 1002.8
20260509031537 3 0 0.0 1.6 0.00 0.00 0.00 63 1003.0
20260509030037 3 0 0.0 1.6 0.00 0.00 0.00 62 1003.3
20260509024543 4 0 0.0 0.0 0.00 0.00 0.00 55 1003.4
20260509023046 4 0 0.0 0.0 0.00 0.00 0.00 54 1003.6
20260509021538 4 0 0.0 0.0 0.00 0.00 0.00 52 1003.7
20260509020044 3 0 0.0 0.0 0.00 0.00 0.00 61 1003.8
20260509014539 3 0 0.0 0.0 0.00 0.00 0.00 67 1003.8
20260509013034 3 0 0.0 0.0 0.00 0.00 0.00 73 1003.8
20260509011539 4 0 0.0 0.0 0.00 0.00 0.00 66 1003.7
20260509010038 5 0 0.0 0.0 0.00 0.00 0.00 58 1003.8
20260509004541 6 0 0.0 0.0 0.00 0.00 0.00 56 1003.7
20260509003054 6 0 0.0 0.0 0.00 0.00 0.00 50 1003.8
20260509001535 7 0 0.0 0.0 0.00 0.00 0.00 49 1003.7
20260509000039 7 0 0.0 1.6 0.00 0.00 0.00 49 1003.7
20260508234541 7 0 0.0 0.0 0.00 0.00 0.00 44 1003.6
20260508233038 8 0 0.0 1.6 0.00 0.00 0.00 42 1003.8
20260508231541 10 213 0.0 1.6 0.00 0.00 0.00 39 1003.9
20260508230036 10 155 0.0 3.2 0.00 0.00 0.00 36 1004.0
20260508224541 10 101 0.0 4.8 0.00 0.00 0.00 38 1004.1
20260508223034 10 202 0.0 3.2 0.00 0.00 0.00 40 1004.1
20260508221541 10 0 0.0 3.2 0.00 0.00 0.00 35 1004.2
20260508220042 11 45 1.6 4.8 0.00 0.00 0.00 33 1004.2
20260508214538 11 105 1.6 6.4 0.00 0.00 0.00 35 1004.3
20260508213041 11 54 1.6 8.0 0.00 0.00 0.00 36 1004.3
20260508211540 10 250 1.6 11.3 0.00 0.00 0.00 38 1004.3
20260508210039 8 47 9.7 17.7 0.00 0.00 0.00 45 1004.3
20260508204538 8 49 11.3 16.1 0.00 0.00 0.00 48 1004.5
20260508203046 8 50 4.8 17.7 0.00 0.00 0.00 41 1004.6
20260508201537 7 51 12.9 17.7 0.00 0.00 0.00 52 1004.8
20260508200036 8 61 12.9 17.7 0.00 0.00 0.00 49 1005.1
20260508194542 7 58 12.9 19.3 0.00 0.00 0.00 45 1005.5
20260508193043 7 48 11.3 20.9 0.00 0.00 0.00 44 1005.7
20260508191541 9 65 3.2 16.1 0.00 0.00 0.00 46 1005.9
20260508190043 8 236 6.4 12.9 0.00 0.00 0.00 52 1005.9
20260508184537 7 295 12.9 19.3 0.00 0.00 0.00 62 1005.8
20260508183046 6 48 11.3 19.3 0.00 0.00 0.00 70 1006.0
20260508181542 6 49 11.3 16.1 0.00 0.00 0.00 76 1006.0
20260508180039 6 37 12.9 16.1 0.00 0.00 0.00 73 1006.2
20260508174556 6 52 11.3 16.1 0.00 0.00 0.00 73 1006.3
20260508173038 5 46 12.9 16.1 0.00 0.00 0.00 80 1006.4
20260508171536 5 48 12.9 16.1 0.00 0.00 0.00 83 1006.5
20260508170037 5 56 12.9 16.1 0.00 0.00 0.00 83 1006.8
20260508164541 5 51 12.9 17.7 0.00 0.00 0.00 81 1007.0
20260508163105 5 15 8.0 16.1 0.00 0.00 0.00 80 1007.2
20260508161538 3 54 9.7 14.5 0.00 0.00 0.00 90 1007.2
20260508160037 3 53 8.0 11.3 0.00 0.00 0.00 90 1007.2
20260508154535 4 44 6.4 8.0 0.00 0.00 0.00 89 1007.4
20260508153040 4 49 6.4 9.7 0.00 0.00 0.00 88 1007.4
20260508151542 5 42 6.4 8.0 0.00 0.00 0.00 84 1007.5